Location: Prague
(50.0830°N, 14.4670°E)
Time: 11:56:04
(UTC+01:00)

XW-2F - Pass Details

Date: 06 December 2021
Orbit: 494 x 515 km, 97.5° (Epoch: 27 January)

Event Time Altitude Azimuth Distance (km) Brightness Sun altitude
Rises 05:53:24 0° 19° (NNE) 2,655 ? -17.0°
Reaches altitude 10° 05:55:37 10° 28° (NNE) 1,762 ? -16.7°
Maximum altitude 05:59:12 38° 98° (E) 799 ? -16.1°
Drops below altitude 10° 06:02:44 10° 168° (SSE) 1,742 ? -15.6°
Sets 06:04:55 0° 176° (S) 2,621 ? -15.3°
